Location: North Evanston
(42.0634°N, 87.6976°W)
Time: 05:45:31
(UTC+00:00)

Explorer 11/Cluster Stage 4 - All Passes

Search period start: 10 May 2026 00:00
Search period end: 20 May 2026 00:00
Orbit: 463 x 1174 km, 28.8° (Epoch: 9 May)

Date Brightness Start Highest point End Pass type
(mag) Time Alt. Az. Time Alt. Az. Time Alt. Az.
10 May - 06:46:48 10° SSW 06:48:59 13° S 06:51:02 10° SSE night (unlit)
10 May - 08:33:36 10° SW 08:35:35 13° S 08:37:26 10° SSE visible
11 May - 06:21:35 10° SSW 06:24:21 14° S 06:26:52 10° SE night (unlit)
11 May - 08:08:35 10° SW 08:10:59 14° S 08:13:12 10° SSE visible
12 May - 05:56:23 10° SSW 05:59:40 16° S 06:02:38 10° SE night (unlit)
12 May - 07:43:31 10° SW 07:46:22 15° S 07:48:56 10° SSE night (unlit)
13 May - 03:47:07 10° S 03:48:04 10° SSE 03:48:59 10° SSE night (unlit)
13 May - 05:31:11 10° SSW 05:34:58 17° S 05:38:20 10° SE night (unlit)
13 May - 07:18:27 10° SW 07:21:43 17° S 07:24:38 10° SSE night (unlit)
14 May - 03:21:10 10° S 03:23:16 11° SSE 03:25:16 10° SE visible
14 May - 05:05:58 10° SW 05:10:13 19° S 05:13:59 10° SE night (unlit)
14 May - 06:53:20 10° SW 06:57:02 18° S 07:00:19 10° SE night (unlit)
15 May - 02:55:38 10° S 02:58:26 13° SSE 03:01:06 10° SE visible
15 May - 04:40:46 10° SW 04:45:27 20° S 04:49:36 10° SE night (unlit)
15 May - 06:28:12 10° SW 06:32:20 20° S 06:35:58 10° SE night (unlit)
16 May - 02:30:14 10° S 02:33:34 14° SSE 02:36:44 10° SE visible
16 May - 04:15:34 10° SW 04:20:38 22° S 04:25:08 10° SE visible
16 May - 06:03:02 10° SW 06:07:36 21° S 06:11:34 10° SE night (unlit)
16 May - 07:52:39 10° SW 07:54:08 11° SSW 07:55:32 10° S night (unlit)
17 May - 02:04:56 10° S 02:08:40 14° SSE 02:12:15 10° SE visible
17 May - 03:50:22 10° SW 03:55:47 23° S 04:00:37 10° ESE visible
17 May - 05:37:52 10° WSW 05:42:49 22° S 05:47:08 10° SE night (unlit)
17 May - 07:27:15 10° SW 07:29:26 12° SSW 07:31:27 10° S night (unlit)
18 May - 01:39:42 10° SSW 01:43:45 15° SSE 01:47:40 10° SE visible
18 May - 03:25:12 10° SW 03:30:54 24° S 03:36:02 10° ESE visible
18 May - 05:12:42 10° WSW 05:17:59 24° S 05:22:38 10° SE visible
18 May - 07:01:56 10° SW 07:04:40 13° SSW 07:07:13 10° S night (unlit)
19 May - 01:14:31 10° SSW 01:18:49 16° SSE 01:22:58 10° SE daylight
19 May - 03:00:02 10° SW 03:05:58 25° S 03:11:25 10° ESE visible
19 May - 04:47:32 10° WSW 04:53:08 25° S 04:58:06 10° SE visible
19 May - 06:36:39 10° SW 06:39:54 14° SSW 06:42:52 10° S night (unlit)
